Satellite: AO-51
Catalog number: 28375
Epoch time:      11166.93042308
Element set:     996
Inclination:      098.0979 deg
RA of node:       145.4420 deg
Eccentricity:    0.0084972
Arg of perigee:   073.6596 deg
Mean anomaly:     287.3920 deg
Mean motion:   14.40761713 rev/day
Decay rate:        8.4e-07 rev/day^2
Epoch rev:           36588
Checksum:              345

Satellite: CP3
Catalog number: 31129
Epoch time:      11167.04710147
Element set:     894
Inclination:      097.8979 deg
RA of node:       191.3280 deg
Eccentricity:    0.0102515
Arg of perigee:   183.4584 deg
Mean anomaly:     176.5963 deg
Mean motion:   14.52497529 rev/day
Decay rate:       4.75e-06 rev/day^2
Epoch rev:           22067
Checksum:              327

Satellite: NO-44
Catalog number: 26931
Epoch time:      11167.13167015
Element set:     777
Inclination:      067.0532 deg
RA of node:       346.2472 deg
Eccentricity:    0.0006727
Arg of perigee:   255.9839 deg
Mean anomaly:     104.0500 deg
Mean motion:   14.29665478 rev/day
Decay rate:       2.94e-06 rev/day^2
Epoch rev:           50677
Checksum:              316

Satellite: CO-65
Catalog number: 32785
Epoch time:      11167.20051534
Element set:      17
Inclination:      097.8501 deg
RA of node:       231.1133 deg
Eccentricity:    0.0014907
Arg of perigee:   175.0307 deg
Mean anomaly:     185.1123 deg
Mean motion:   14.82018069 rev/day
Decay rate:       2.71e-06 rev/day^2
Epoch rev:           16939
Checksum:              276

Satellite: IO-26
Catalog number: 22826
Epoch time:      11167.37990508
Element set:     586
Inclination:      098.5238 deg
RA of node:       112.3253 deg
Eccentricity:    0.0007904
Arg of perigee:   273.7327 deg
Mean anomaly:     086.2949 deg
Mean motion:   14.29613317 rev/day
Decay rate:        3.5e-07 rev/day^2
Epoch rev:           92419
Checksum:              326

Satellite: CO-57
Catalog number: 27848
Epoch time:      11167.55681636
Element set:      82
Inclination:      098.7117 deg
RA of node:       175.4554 deg
Eccentricity:    0.0008922
Arg of perigee:   200.5373 deg
Mean anomaly:     159.5452 deg
Mean motion:   14.20596095 rev/day
Decay rate:       1.03e-06 rev/day^2
Epoch rev:           41277
Checksum:              319

Satellite: PRISM
Catalog number: 33493
Epoch time:      11167.89004526
Element set:     684
Inclination:      098.1247 deg
RA of node:       296.4963 deg
Eccentricity:    0.0020690
Arg of perigee:   045.2510 deg
Mean anomaly:     315.0354 deg
Mean motion:   14.81733892 rev/day
Decay rate:       9.53e-06 rev/day^2
Epoch rev:           12947
Checksum:              310

Satellite: LO-19
Catalog number: 20442
Epoch time:      11167.89194940
Element set:     125
Inclination:      098.3467 deg
RA of node:       121.8733 deg
Eccentricity:    0.0012100
Arg of perigee:   153.4718 deg
Mean anomaly:     206.7084 deg
Mean motion:   14.32150249 rev/day
Decay rate:        6.9e-07 rev/day^2
Epoch rev:           11775
Checksum:              290

Satellite: SOHLA-1
Catalog number: 33496
Epoch time:      11167.91402086
Element set:     439
Inclination:      098.0806 deg
RA of node:       277.7484 deg
Eccentricity:    0.0007444
Arg of perigee:   119.0301 deg
Mean anomaly:     241.1649 deg
Mean motion:   14.69624610 rev/day
Decay rate:        7.2e-07 rev/day^2
Epoch rev:           12844
Checksum:              297

Satellite: TISAT-1
Catalog number: 36799
Epoch time:      11167.93401387
Element set:     958
Inclination:      098.1021 deg
RA of node:       236.1821 deg
Eccentricity:    0.0013888
Arg of perigee:   279.2841 deg
Mean anomaly:     080.6779 deg
Mean motion:   14.80580157 rev/day
Decay rate:       6.05e-06 rev/day^2
Epoch rev:            5027
Checksum:              324

Satellite: AO-16
Catalog number: 20439
Epoch time:      11168.02203326
Element set:     210
Inclination:      098.3846 deg
RA of node:       117.6454 deg
Eccentricity:    0.0011005
Arg of perigee:   159.2587 deg
Mean anomaly:     200.9044 deg
Mean motion:   14.31924629 rev/day
Decay rate:        4.3e-07 rev/day^2
Epoch rev:           11759
Checksum:              274

Satellite: RAX
Catalog number: 37223
Epoch time:      11152.36844328
Element set:    0173
Inclination:      071.9713 deg
RA of node:       073.6151 deg
Eccentricity:    0.0021634
Arg of perigee:   311.5989 deg
Mean anomaly:     048.3343 deg
Mean motion:   14.77415682 rev/day
Decay rate:       6.35e-06 rev/day^2
Epoch rev:           02854
Checksum:              291

Satellite: OOREOS
Catalog number: 37224
Epoch time:      11153.29456974
Element set:    0179
Inclination:      071.9726 deg
RA of node:       071.8135 deg
Eccentricity:    0.0020315
Arg of perigee:   307.7637 deg
Mean anomaly:     052.1684 deg
Mean motion:   14.77036357 rev/day
Decay rate:       4.92e-06 rev/day^2
Epoch rev:           02867
Checksum:              309

Satellite: FO-69
Catalog number: 37227
Epoch time:      11167.24478769
Element set:    0056
Inclination:      071.9713 deg
RA of node:       041.3462 deg
Eccentricity:    0.0018601
Arg of perigee:   281.5288 deg
Mean anomaly:     078.3784 deg
Mean motion:   14.76598248 rev/day
Decay rate:       1.83e-06 rev/day^2
Epoch rev:           00918
Checksum:              339

